User: anonymous   Login
Location: Unspecified
(0.0000°N, 0.0000°E)
Time: 21:59:49
(UTC+00:00)
Language:

Courier 1B - Orbit

View from above orbital plane
View from above orbital plane
View from above satellite
View from above satellite

Ground track
Ground track

The orbit data is extracted from the following two-line orbital elements,

1    58U 60013A   16206.88950713 +.00000082 +00000-0 -69820-5 0  9990
2    58 028.3269 116.6464 0165097 163.5888 197.0081 13.46303802746632
Epoch (UTC): 24 July 2016 21:20:53
Eccentricity: 0.0165097
inclination: 28.3269°
perigee height: 962 km
apogee height: 1209 km
right ascension of ascending node: 116.6464°
argument of perigee: 163.5888°
revolutions per day: 13.46303802
mean anomaly at epoch: 197.0081°
orbit number at epoch: 74663

The dashed part of the orbit path shows where the satellite is in the earth's shadow,  

DLR